[[{"header":{"parameterUnit":"m.s-1","parameterCategory":1,"la1":30.2991,"la2":30.254,"lo1":-89.0895,"lo2":-89.0444,"dy":0.0017,"dx":0.0017,"nx":28,"ny":28,"refTime":"2024-08-01T21:00:00:Z","depth":0,"parameterNumber":2,"parameterNumberName":"U-component_of_WINDS"},"data":[0,0,0,0,0,0,0,0,0,0,0,0,0,0,0,0,0,0,0,0,0,0,0,0,0,0,0,0,0,0,0,0,0,0,0,0,0,0,0,0,0,0,0,0,0,0,0,0,0,0,0,0,0,0,0,0,0,0,2.7004,2.7004,0,2.7091,2.7092,2.7093,2.7096,2.7095,2.7094,2.7093,2.7186,2.7189,2.7193,0,0,0,0,0,0,0,0,0,0,0,0,0,2.6844,2.6847,2.7003,2.7005,2.7006,2.7091,2.7092,2.7093,2.7096,2.7095,2.7094,2.7092,2.7185,2.7189,2.7193,0,0,0,0,0,0,0,0,0,0,0,0,0,2.692,2.6848,2.7003,2.7017,2.7019,2.709,2.7092,2.7093,2.7097,2.7095,2.7093,2.7092,2.7184,2.7189,2.7194,2.7257,0,0,2.721,2.7212,0,0,0,0,0,0,0,0,2.6916,2.6926,2.7014,2.7017,2.7019,2.7081,2.707,2.7149,2.7097,2.7067,2.7093,2.7091,2.7153,2.716,2.718,2.7262,2.7266,2.721,2.7213,2.7215,2.7217,0,0,0,0,0,0,0,2.6911,2.6923,2.7038,2.7016,2.7018,2.7021,2.703,2.7085,2.7118,2.707,2.707,2.708,2.7154,2.7175,2.7182,2.7267,2.721,2.7214,2.7218,2.722,2.7407,2.7409,0,0,0,0,0,0,2.6902,2.6918,2.7035,2.7041,2.6963,2.7025,2.7035,2.7063,2.7117,2.7124,2.7082,2.708,2.7167,2.7176,2.7186,2.7264,2.7215,2.722,2.7223,2.7405,2.7407,2.7409,0,0,0,0,0,0,2.6899,2.6913,2.7032,2.698,2.6995,2.7029,2.706,2.7065,2.7087,2.7126,2.7133,2.7097,2.7166,2.7178,2.724,2.7267,2.7223,2.7227,2.7403,2.7406,2.7408,2.7421,0,0,0,0,0,0,2.6894,2.6911,2.6935,2.698,2.6998,2.7083,2.7062,2.7068,2.7095,2.7094,2.7142,2.7149,2.7166,2.7232,2.7245,2.7274,2.7231,2.7401,2.7404,2.7408,2.7418,2.7424,2.7428,0,0,0,0,0,2.6888,2.6935,2.6936,2.695,2.7027,2.7084,2.7095,2.7112,2.7097,2.7122,2.7148,2.7147,2.7263,2.7238,2.7253,2.7283,2.7399,2.7403,2.7407,2.7416,2.7423,2.7428,0,0,0,0,0,0,2.6893,2.6941,2.6942,2.7005,2.704,2.7085,2.7116,2.7119,2.716,2.7157,2.7178,2.7189,2.725,2.7273,2.7245,2.7349,2.7329,2.7337,2.7331,2.7338,2.7343,2.7335,2.7236,0,0,0,0,0,2.6901,2.6942,2.6983,2.7034,2.7052,2.7081,2.7106,2.7117,2.7155,2.717,2.72,2.7238,2.7283,2.7312,2.7355,2.7422,2.7433,2.7451,2.7456,2.746,2.7466,2.7504,2.7512,2.7423,2.7423,2.7423,0,0,2.6918,2.695,2.6974,2.7036,2.7064,2.7107,2.7093,2.7139,2.7172,2.7177,2.7236,2.726,2.7304,2.7369,2.7399,2.739,2.7493,2.7466,2.7469,2.7472,2.7509,2.7517,2.7525,2.7426,2.7426,2.7425,0,0,2.6971,2.6999,2.7045,2.7074,2.7118,2.7137,2.7148,2.7193,2.7208,2.7268,2.7273,2.7314,2.739,2.7421,2.7447,2.7515,2.7516,2.7529,2.7555,2.7592,2.7599,2.7605,2.7629,2.7637,2.7535,2.7535,2.7535,0,2.6987,2.705,2.7068,2.7114,2.7142,2.7149,2.7196,2.7224,2.728,2.7299,2.7289,2.7386,2.7416,2.7488,2.7505,2.7526,2.754,2.7522,2.7596,2.7603,2.7609,2.7632,2.7641,2.7536,2.7536,2.7535,2.7535,0,2.7068,2.7113,2.7145,2.7197,2.7229,2.7276,2.7302,2.7332,2.7341,2.7362,2.7423,2.746,2.7511,2.753,2.7539,2.7604,2.7597,2.7591,2.7572,2.7618,2.764,2.7649,2.7537,2.7537,2.7537,2.7536,0,0,2.7123,2.7187,2.7198,2.7223,2.7272,2.7308,2.7356,2.7405,2.743,2.747,2.7511,2.7577,2.7572,2.7601,2.7615,2.7647,2.7698,2.7638,2.7639,2.7647,2.7772,2.7775,2.7784,2.77,2.7702,2.7704,2.7768,0,2.7181,2.7264,2.7283,2.7356,2.7397,2.7406,2.7448,2.7484,2.7506,2.7546,2.7571,2.7616,2.7607,2.7625,2.7658,2.7685,2.7723,2.7681,2.7739,2.7741,2.7726,2.7796,2.7799,2.7857,2.7777,2.7778,2.7779,0,2.7258,2.7298,2.7375,2.742,2.7438,2.7475,2.7523,2.7561,2.7603,2.7616,2.765,2.7661,2.7713,2.7692,2.7764,2.7735,2.7761,2.7778,2.7781,2.7786,2.7761,2.7801,2.7877,2.7885,2.7793,2.7792,2.7791,0,2.729,2.7364,2.7419,2.744,2.7494,2.752,2.7544,2.7584,2.7613,2.7656,2.7675,2.7723,2.7749,2.7787,2.7811,2.7794,2.7882,2.7863,2.7895,2.7894,2.7911,2.7909,2.799,2.793,2.793,2.793,2.793,0,2.7351,2.7397,2.7434,2.7467,2.752,2.7543,2.7595,2.7619,2.7656,2.7695,2.7707,2.7745,2.7774,2.7817,2.7836,2.7893,2.7905,2.7919,2.7923,2.7916,2.7915,2.7932,2.7928,2.7933,2.7932,2.7932,2.7931,0,2.7394,2.742,2.7481,2.7528,2.7541,2.7578,2.7619,2.7653,2.7676,2.7726,2.7739,2.7776,2.7826,2.7854,2.7918,2.7931,2.7995,2.7998,2.798,2.7981,2.8011,2.8007,2.8104,2.8118,2.805,2.8051,2.8052,0,2.743,2.7466,2.7517,2.7544,2.7568,2.7612,2.7641,2.7666,2.7697,2.7748,2.7776,2.7827,2.7869,2.795,2.7982,2.8032,2.8035,2.8066,2.8042,2.8035,2.8034,2.8031,2.8035,2.8069,2.807,2.807,2.8071,0,2.7492,2.7503,2.7545,2.7592,2.7626,2.7665,2.7703,2.7725,2.7756,2.779,2.7841,2.7874,2.7939,2.7989,2.8041,2.8068,2.8075,2.8078,2.8088,2.8081,2.8069,2.8075,2.7989,2.8075,2.8075,2.8075,2.8074,2.8074,2.7532,2.7564,2.7605,2.7651,2.7683,2.7718,2.7753,2.778,2.7823,2.7877,2.789,2.7944,2.7987,2.8057,2.8086,2.8129,2.8123,2.8138,2.8141,2.8144,2.8144,2.8063,2.8139,2.8139,2.8139,2.8139,2.8139,0,2.7593,2.762,2.7663,2.7715,2.7752,2.7756,2.7798,2.7829,2.7876,2.7915,2.7956,2.8016,2.8066,2.8103,2.8154,2.8182,2.8187,2.8195,2.8192,2.8198,2.8147,2.8133,2.819,2.819,2.819,2.819,2.819,2.819,2.7629,2.7683,2.7701,2.7772,2.7799,2.7851,2.7875,2.7909,2.794,2.8006,2.8047,2.8071,2.811,2.8165,2.8211,2.8221,2.8239,2.8246,2.8256,2.8207,2.8202,2.8196,2.8183,2.825,2.825,2.8304,2.8304,2.8305]},{"header":{"parameterUnit":"m.s-1","parameterCategory":1,"la1":30.2991,"la2":30.254,"lo1":-89.0895,"lo2":-89.0444,"dy":0.0017,"dx":0.0017,"nx":28,"ny":28,"refTime":"2024-08-01T21:00:00:Z","depth":0,"parameterNumber":3,"parameterNumberName":"V-component_of_WINDS"},"data":[0,0,0,0,0,0,0,0,0,0,0,0,0,0,0,0,0,0,0,0,0,0,0,0,0,0,0,0,0,0,0,0,0,0,0,0,0,0,0,0,0,0,0,0,0,0,0,0,0,0,0,0,0,0,0,0,0,0,4.0389,4.0392,0,4.0632,4.0635,4.0637,4.0692,4.069,4.0688,4.0686,4.0929,4.0937,4.0945,0,0,0,0,0,0,0,0,0,0,0,0,0,3.9966,3.9973,4.0389,4.0392,4.0395,4.0631,4.0635,4.0638,4.0692,4.069,4.0688,4.0686,4.0927,4.0936,4.0946,0,0,0,0,0,0,0,0,0,0,0,0,0,4.0173,3.9975,4.0388,4.045,4.0458,4.0631,4.0635,4.0639,4.0692,4.069,4.0687,4.0685,4.0923,4.0935,4.0947,4.1073,0,0,4.0984,4.0989,0,0,0,0,0,0,0,0,4.0161,4.0188,4.0438,4.0446,4.0456,4.0629,4.0575,4.0784,4.0693,4.0603,4.0686,4.0683,4.0831,4.085,4.0902,4.1084,4.1095,4.0985,4.0992,4.0998,4.1001,0,0,0,0,0,0,0,4.0146,4.0178,4.0485,4.0442,4.0452,4.0464,4.0491,4.0614,4.0728,4.0611,4.0615,4.0644,4.0835,4.089,4.0908,4.1098,4.0985,4.0995,4.1003,4.1008,4.1395,4.1398,0,0,0,0,0,0,4.0122,4.0166,4.0477,4.0492,4.0299,4.0474,4.0504,4.0576,4.0727,4.0748,4.0646,4.0645,4.087,4.0893,4.0916,4.1073,4.0998,4.1009,4.1016,4.1392,4.1396,4.1399,0,0,0,0,0,0,4.0113,4.0149,4.0467,4.033,4.0372,4.0484,4.0564,4.0582,4.0637,4.0754,4.0773,4.0681,4.0869,4.0899,4.1034,4.1082,4.1014,4.1025,4.1389,4.1393,4.1397,4.1388,0,0,0,0,0,0,4.01,4.0146,4.0196,4.0331,4.0379,4.0582,4.0567,4.0588,4.0658,4.066,4.0792,4.0811,4.087,4.1015,4.1046,4.1098,4.1035,4.1385,4.1391,4.1396,4.1384,4.1391,4.1398,0,0,0,0,0,4.0085,4.0183,4.0198,4.0236,4.0445,4.0585,4.0612,4.0679,4.0662,4.0712,4.0787,4.0807,4.1072,4.1029,4.1063,4.112,4.1382,4.1389,4.1396,4.1381,4.139,4.1397,0,0,0,0,0,0,4.0049,4.0201,4.0221,4.0365,4.0462,4.0594,4.066,4.0686,4.0789,4.0786,4.0863,4.0892,4.1021,4.1084,4.1033,4.1249,4.1226,4.124,4.1203,4.1213,4.1219,4.1201,4.1045,0,0,0,0,0,4.0058,4.0161,4.0288,4.0403,4.0451,4.0547,4.0611,4.0654,4.0757,4.0797,4.0882,4.0979,4.1084,4.1152,4.1255,4.1393,4.1422,4.1449,4.1456,4.146,4.1472,4.1548,4.1561,4.1422,4.1422,4.1421,0,0,4.0077,4.0173,4.0233,4.0398,4.0479,4.0582,4.0581,4.0691,4.0768,4.0813,4.0946,4.1011,4.1125,4.1261,4.1326,4.1317,4.1517,4.1469,4.1472,4.1481,4.1557,4.157,4.1581,4.1426,4.1425,4.1425,0,0,4.0165,4.0249,4.0354,4.0434,4.0556,4.0619,4.0644,4.0773,4.0819,4.0953,4.099,4.1081,4.1261,4.134,4.1403,4.152,4.1542,4.1552,4.1586,4.166,4.1671,4.1681,4.1722,4.1736,4.1562,4.1562,4.1562,0,4.0173,4.0332,4.0403,4.0512,4.0583,4.0631,4.0736,4.081,4.0959,4.1005,4.0994,4.1221,4.1301,4.1456,4.1484,4.1535,4.1564,4.1537,4.1664,4.1675,4.1685,4.1725,4.174,4.1563,4.1563,4.1563,4.1563,0,4.0335,4.0445,4.0515,4.0659,4.0738,4.0844,4.0929,4.1,4.1036,4.11,4.1235,4.1332,4.1456,4.1496,4.1531,4.1656,4.1647,4.1649,4.1628,4.1698,4.1737,4.1752,4.1563,4.1563,4.1563,4.1563,0,0,4.0407,4.059,4.0614,4.068,4.0818,4.0903,4.101,4.1133,4.1192,4.1292,4.1383,4.1534,4.1537,4.1609,4.1653,4.1718,4.1804,4.1712,4.1716,4.1725,4.1946,4.1943,4.196,4.1819,4.1822,4.1824,4.1936,0,4.0511,4.0708,4.0775,4.0936,4.1038,4.1084,4.1178,4.1271,4.1333,4.1426,4.1494,4.16,4.1596,4.1639,4.1706,4.1779,4.1849,4.1772,4.1902,4.1906,4.1872,4.198,4.1978,4.2078,4.1951,4.1954,4.1956,0,4.0659,4.0764,4.0936,4.1061,4.1106,4.1189,4.1306,4.1396,4.1502,4.1542,4.1623,4.1663,4.1775,4.1747,4.1901,4.1847,4.1904,4.1948,4.1954,4.1968,4.1935,4.1996,4.2112,4.2127,4.1981,4.1979,4.1977,0,4.0693,4.0877,4.1004,4.1058,4.1207,4.1264,4.1329,4.1433,4.1502,4.1604,4.1649,4.1761,4.1823,4.1908,4.1976,4.195,4.2124,4.2102,4.2159,4.2157,4.2194,4.219,4.2319,4.2231,4.2231,4.223,4.223,0,4.0802,4.0905,4.1021,4.1099,4.1215,4.129,4.1403,4.1469,4.1561,4.1651,4.1697,4.178,4.1866,4.196,4.2013,4.2132,4.216,4.2194,4.2207,4.219,4.2185,4.2228,4.2223,4.2234,4.2234,4.2233,4.2232,0,4.086,4.0941,4.1083,4.1212,4.1247,4.1327,4.1437,4.1514,4.1578,4.1691,4.1721,4.1821,4.1934,4.2011,4.2154,4.219,4.2319,4.2331,4.2284,4.229,4.2343,4.2336,4.2503,4.2528,4.2423,4.2424,4.2425,0,4.0924,4.1004,4.1143,4.1208,4.1273,4.1377,4.1448,4.1524,4.1596,4.1723,4.1783,4.19,4.1997,4.2174,4.2257,4.2367,4.2382,4.2433,4.2398,4.2378,4.2382,4.2376,4.2384,4.2437,4.2438,4.2439,4.2439,0,4.1028,4.1065,4.1167,4.1284,4.1368,4.1463,4.1558,4.1607,4.17,4.1778,4.1895,4.197,4.2118,4.2232,4.2349,4.2413,4.2441,4.245,4.2469,4.2452,4.2421,4.2438,4.2298,4.2445,4.2445,4.2444,4.2444,4.2444,4.1091,4.1164,4.1274,4.1386,4.1466,4.1554,4.1632,4.1706,4.1806,4.1933,4.1972,4.2093,4.2195,4.2357,4.2422,4.2517,4.2512,4.2539,4.2546,4.2552,4.2552,4.2406,4.2538,4.2538,4.2538,4.2538,4.2538,0,4.1197,4.127,4.1372,4.1505,4.1593,4.1614,4.172,4.1791,4.1898,4.1993,4.2088,4.2221,4.2332,4.2424,4.2538,4.2596,4.2611,4.2623,4.2619,4.2633,4.2549,4.2521,4.2608,4.2608,4.2608,4.2608,4.2608,4.2608,4.1262,4.1388,4.1438,4.1603,4.1675,4.1796,4.1854,4.1935,4.2011,4.2159,4.2252,4.2312,4.2406,4.2527,4.2629,4.2653,4.2692,4.2701,4.2727,4.2647,4.2639,4.2631,4.2606,4.2709,4.2709,4.2804,4.2805,4.2805]}]]